Submittal Forms
Current Contests
Recent Contests

Club Activity Tracker - Minnesota Wireless Assn (from club selection on form)

Recent postings for the selected club or group are listed below. Other than the call used, all calls listed are only those associated with the club or group. Click on a call to see the details of the posting.
Status Key: new=new posting, update=update prior posting, move=change club/group, delete=delete prior posting.

Sort by   for past

TimestampCallContestClassPowerScoreStatus
2021-05-09 15:56:22K0TCArQPSOCWHP100new6413
2021-05-09 15:48:19K0TCVolta RTTYSOABHP3,509,490new6411
2021-05-09 14:16:25K0ADCQ-MSOABCWHP15,405new6412
2021-05-09 12:56:04W0PIArQPSOMixedLP13,250update6413
2021-05-09 06:33:10AC0WArQPSOMixedLP5,180new6413
2021-05-09 03:15:17K4IUVolta RTTYSOABLP135,000new6411
2021-05-09 02:04:40K0PCArQPSOMixedHP2,025new6413
2021-05-09 02:03:25W6GMTArQPSOCWLP64new6413
2021-05-09 01:40:46K0RJWArQPSOSSBHP255new6413
2021-05-07 21:21:49W6GMTKRC SSTSingle OpLP49new6410
 
2021-05-07 15:43:03K0TGNCCC SprintSingle OpLP1,260update6409
2021-05-06 04:10:03K0HBCWopsTSingle OpHP5,476new6404
2021-05-06 04:09:07AA0AWCWopsTSingle OpLP2,714new6404
2021-05-06 04:03:00K4IUCWopsTSingle OpLP10,304new6404
2021-05-06 04:02:19K0TGCWopsTSingle OpLP3,944new6404
2021-05-06 03:28:12K0TCCWopsTSingle OpHP900new6404
2021-05-06 03:26:50K0PKCWopsTSingle OpLP575new6404
2021-05-05 23:18:40K0JPCWopsTSingle OpLP729new6403
2021-05-05 20:16:50KB0RCWopsTSingle OpLP546new6403
2021-05-05 20:05:31AA0AWCWopsTSingle OpLP3,300new6403
 
2021-05-05 20:03:48K0TGCWopsTSingle OpLP3,472new6403
2021-05-05 20:03:20K4IUCWopsTSingle OpLP5,846new6403
2021-05-05 20:02:38W0ORCWopsTSingle OpLP4,489new6403
2021-05-05 20:02:26K0ADCWopsTSingle OpLP17,136new6403
2021-05-05 20:01:50N0BKCWopsTSingle OpLP3,600new6403
2021-05-05 20:01:37K0PCCWopsTSingle OpHP9,894new6403
2021-05-05 20:01:23K0TCCWopsTSingle OpHP1,521new6403
2021-05-05 19:55:43N5KBNewEngQPSingle OpHP351new6397
2021-05-05 19:52:00N5KBCWopsTAcademy Single OpLP1,600new6403
2021-05-05 19:33:37K0PKCWopsTSingle OpLP1,225new6403
 
2021-05-05 14:07:07W6GMTCWopsTSingle OpLP225new6402
2021-05-05 14:06:03NG0CCWopsTAcademy Single OpLP100new6402
2021-05-05 14:05:13K0JPCWopsTSingle OpLP306new6402
2021-05-05 14:04:34AA0AWCWopsTSingle OpLP2,332new6402
2021-05-05 14:02:43W0ORCWopsTSingle OpLP11,881new6402
2021-05-05 14:02:32N0BKCWopsTSingle OpLP2,809new6402
2021-05-05 14:02:25KM0OCWopsTSingle OpHP25,277new6402
2021-05-05 14:02:15K0TGCWopsTSingle OpLP6,237new6402
2021-05-05 14:01:18K0TCCWopsTSingle OpHP2,444new6402
2021-05-05 13:32:13K0PKCWopsTSingle OpLP1,056new6402
 
2021-05-05 13:26:08KB9SCWopsTSingle OpLP900new6402
2021-05-05 13:16:51K4IUCWopsTSingle OpLP529new6402
2021-05-03 20:44:48K0TCDeQPSingle OpHP2new6396
2021-05-03 06:01:27AC0W7QPSO(A)MixedLP12,844new6394
2021-05-03 04:06:12AC0WNewEngQPSingle OpLP8,987new6397
2021-05-03 03:27:58AC0WInQPSingle OpLP551new6395
2021-05-03 02:51:26AC0WDeQPSingle OpLP960new6396
2021-05-03 02:23:09KA9VVQ(W9FZ)NeQPFixedLP16new6334
2021-05-03 01:40:21K4IUNewEngQPSingle OpLP5,952new6397
2021-05-03 01:38:51K4IUInQPSingle OpLP98new6395
 
2021-05-03 01:37:25K4IUDeQPSingle OpLP160new6396
2021-05-03 01:02:39W6GMTKRC SSTSingle OpLP42new6398
2021-05-03 00:35:53K0JPInQPSingle OpLP2new6395
2021-05-03 00:33:37K0JPDeQPSingle OpLP2new6396
2021-05-03 00:29:33K0JPNewEngQPSingle OpLP736new6397
2021-05-03 00:26:48K0JP7QPSOMixedLP3,906new6394
2021-05-03 00:20:49K0RJWNewEngQPSingle OpHP2,701new6397
2021-05-03 00:15:20W0PINewEngQPSingle OpLP20,088new6397
2021-05-03 00:13:16W0PIInQPSingle OpLP1,848new6395
2021-05-03 00:10:56W0PIDeQPSingle OpLP2,000new6396
 
2021-05-03 00:09:22W0PI7QPSO(A)MixedLP34,884new6394
2021-05-02 22:26:28W6GMTNewEngQPSingle OpLP1,760new6397
2021-05-02 21:23:07K0PCNewEngQPSingle OpHP5,694new6397
2021-05-02 21:22:23K0PCInQPSingle OpHP32new6395
2021-05-02 21:21:43K0PCDeQPSingle OpHP300new6396
2021-05-02 21:21:07K0PC7QPSO(A)CWHP1,026new6394
2021-05-02 19:32:27K0RJWDeQPSingle OpHP9new6396
2021-05-02 06:42:30K0RJW7QPSOSSBHP7,452new6394
2021-05-02 03:04:01K0RJWInQPSingle OpHP1,176new6395
2021-05-02 02:20:26W6GMTInQPSingle OpLP60new6395
 
2021-05-02 02:16:37W6GMT7QPSO(A)CWLP4,536new6394
2021-04-30 19:30:31K0ADCWopsTSingle OpLP10,201new6386
2021-04-30 03:01:40K0TGNCCC SprintSingle OpLP832new6390
2021-04-29 04:14:26K0PKCWopsTSingle OpLP225new6386
2021-04-29 04:06:45AA0AWCWopsTSingle OpLP2,288new6386
2021-04-29 04:02:49K0HBCWopsTSingle OpHP5,329new6386
2021-04-29 04:01:48K0TGCWopsTSingle OpLP4,824new6386
2021-04-29 04:01:48N0BKCWopsTSingle OpLP676new6386
2021-04-29 03:40:57N0BMCWopsTSingle OpLP441new6386
2021-04-29 03:29:43K0TCCWopsTSingle OpHP1,089new6386
 
2021-04-28 20:13:49W0ORCWopsTSingle OpLP2,116new6385
2021-04-28 20:07:14W6GMTCWopsTSingle OpLP400new6385
2021-04-28 20:05:23AA0AWCWopsTSingle OpLP3,024new6385
2021-04-28 20:02:35K0ADCWopsTSingle OpLP19,720new6385
2021-04-28 20:01:23N0URCWopsTSingle OpQRP5,624new6385
2021-04-28 20:00:23N0BKCWopsTSingle OpLP2,916new6385
2021-04-28 20:00:05N5KBCWopsTAcademy Single OpLP1,681new6385
2021-04-28 19:37:09KB9SCWopsTSingle OpHP900new6385
2021-04-28 14:09:20KM0OCWopsTSingle OpHP18,904new6384
2021-04-28 14:05:03AA0AWCWopsTSingle OpLP1,480new6384
 
2021-04-28 14:03:32N0BKCWopsTSingle OpLP1,872new6384
2021-04-28 14:02:07K0TGCWopsTSingle OpLP3,717new6384
2021-04-28 14:01:31K0TCCWopsTSingle OpHP2,352new6384
2021-04-28 13:54:42N0BMCWopsTSingle OpLP1,089new6384
2021-04-28 13:32:13K0PKCWopsTSingle OpLP2,116new6384
2021-04-28 13:20:43KB9SCWopsTSingle OpLP400new6384
2021-04-27 04:52:47K0PCFlQPSOAB(A)CWHP11,742new6375
2021-04-27 01:42:12K0RJWFlQPSOABSSBHP132new6375
2021-04-26 18:19:39K0TCSPDX RTTYSOABHP1,022new6372
2021-04-26 18:10:44K0TCFlQPSOABCWHP11,750new6375
 
2021-04-26 09:34:23W6GMTKRC SSTSingle OpLP88new6380
2021-04-26 03:52:54K0JPFlQPSOABMixedLP676update6375
2021-04-26 03:16:40K0ADFlQPSOAB(A)MixedHP30,600new6375
2021-04-26 00:47:47WI9WIFlQPSOABMixedHP65,771new6375
2021-04-25 23:24:00AA0AWFlQPSOABCWLP41,528new6375
2021-04-25 23:05:13KA9VVQFlQPM/SMixedLP42,560new6375
 (W9FZ,@KA9VVQ)
2021-04-25 22:41:00AC0WFlQPSOAB(A)MixedLP57,608new6375
2021-04-25 22:23:02W6GMTFlQPSOABCWLP1,672new6375
2021-04-25 22:00:04W0PIFlQPSOABMixedLP96,140new6375
2021-04-25 21:54:02KB9SFlQPSOAB(A)CWLP1,140new6375
 
2021-04-25 18:26:15N5KBFlQPSOAB(A)MixedHP780new6375
2021-04-25 16:54:30K4IUSPDX RTTYSOABLP20new6372
2021-04-25 16:26:54K4IUFlQPSOAB(A)CWLP19,392new6375
2021-04-23 21:06:36W6GMTKRC SSTSingle OpLP30new6371
2021-04-23 03:02:00K0TGNCCC SprintSingle OpLP720new6370
2021-04-22 04:05:29AA0AWCWopsTSingle OpLP2,064new6366
2021-04-22 04:02:43K0HBCWopsTSingle OpHP14,161new6366
2021-04-22 04:02:39K4IUCWopsTSingle OpLP11,400new6366
2021-04-22 04:02:27K0ADCWopsTSingle OpHP18,522new6366
2021-04-22 04:01:15K0TGCWopsTSingle OpLP6,156new6366
 
2021-04-22 03:29:41K0TCCWopsTSingle OpHP625new6366
2021-04-22 03:24:17K0PKCWopsTSingle OpLP625new6366
2021-04-21 20:06:55W0ORCWopsTSingle OpLP2,116new6365
2021-04-21 20:05:23AA0AWCWopsTSingle OpLP2,400new6365
2021-04-21 20:02:53N0BKCWopsTSingle OpLP3,660new6365
2021-04-21 20:02:23K0TGCWopsTSingle OpLP1,225new6365
2021-04-21 20:02:13W0ORCWopsTSingle OpLP2,116new6364
2021-04-21 20:01:59K0ADCWopsTSingle OpLP14,632new6365
2021-04-21 20:01:17K4IUCWopsTSingle OpLP6,970new6365
2021-04-21 20:01:13N0URCWopsTSingle OpQRP4,554new6365
 
2021-04-21 19:49:17N5KBCWopsTAcademy Single OpHP1,600new6365
2021-04-21 19:36:12K0PCCWopsTSingle OpHP1,764new6365
2021-04-21 19:33:08K0PKCWopsTSingle OpLP400new6365
2021-04-21 19:15:04KB9SCWopsTSingle OpLP121new6365
2021-04-21 14:06:23AA0AWCWopsTSingle OpLP841new6364
2021-04-21 14:04:57N0BKCWopsTSingle OpLP3,132new6364
2021-04-21 14:04:57W6GMTCWopsTSingle OpLP289new6364
2021-04-21 14:03:43K0TGCWopsTSingle OpLP2,021new6364
2021-04-21 14:02:50K0ADCWopsTSingle OpLP13,328new6364
2021-04-21 14:02:18KM0OCWopsTSingle OpHP19,162new6364
 
2021-04-21 14:01:22K4IUCWopsTSingle OpLP4,964new6364
2021-04-21 14:00:55K0TCCWopsTSingle OpHP2,304new6364
2021-04-21 13:25:38KB9SCWopsTSingle OpLP324new6364
2021-04-21 13:17:26K0PKCWopsTSingle OpLP225new6364
2021-04-21 02:41:06K0TGMiQPSingle OpLP1,920new6357
2021-04-19 16:55:51NE9UMiQPMobile Multi-OpLP77,700new6357
 (KK9K,@NE9U)
2021-04-19 14:38:56K0PCOnQPSO CWHP400new5642
2021-04-19 14:37:42K0PCMiQPSingle OpHP748new6357
2021-04-19 13:28:58KB9SMiQPSingle OpLP1,480new6357
2021-04-19 01:38:15K0PKCQMM DXSOSB/40HP2,684new6356
 
2021-04-19 01:04:18W6GMTKRC SSTSingle OpLP120new6358
2021-04-19 00:19:25N0UKCQMM DXSOABQRP4,712new6356
2021-04-18 21:03:05W6GMTCQMM DXSOABLP600new6356
2021-04-18 19:56:55K4IUCQMM DXSOABLP2,576new6356
2021-04-18 18:55:00W0PIOnQPSO MixedLP12,137new5642
2021-04-18 18:10:46K0TCOnQPSO CWHP7,134new5642
2021-04-18 18:06:56AC0WOnQPSO MixedLP19,095new5642
2021-04-18 18:02:56K0TCMiQPSingle OpHP4,554new6357
2021-04-18 17:52:17W6GMTOnQPSO CWLP600new5642
2021-04-18 17:37:28K0JPOnQPSO MixedLP27new5642
 
2021-04-18 15:04:24W0ZQMiQPSingle OpLP750new6357
2021-04-18 12:42:23K0ADMiQPSingle OpLP1,722new6357
2021-04-18 06:51:34W0PIMiQPSingle OpLP7,020new6357
2021-04-18 05:08:32AC0WMiQPSingle OpLP8,874new6357
2021-04-18 03:57:08K0RJWOnQPSO SSBHP75new5642
2021-04-18 03:54:24K0RJWMiQPSingle OpHP1,680new6357
2021-04-18 00:29:00W6GMTMiQPSingle OpLP312new6357
2021-04-18 00:14:31K4IUMiQPSingle OpLP588new6357
2021-04-17 23:04:50K0JPMiQPSingle OpLP66new6357
2021-04-17 14:07:25K0RJWGaQPSingle OpSSBHP3,145new6336
 
2021-04-16 20:49:33N5KBKRC SSTAcademy Single OpLP456new6351
2021-04-16 05:10:41K0YLNMQPSingle OpHP4update6335
2021-04-16 03:03:36K0TGNCCC SprintSingle OpLP725new6350
2021-04-15 22:06:37NG0CCWopsTAcademy Single OpLP1,089new6347
2021-04-15 14:24:01K0YLNDQPFixedHP54,648new6337
2021-04-15 04:09:25AA0AWCWopsTSingle OpLP2,107new6347
2021-04-15 04:02:32K0HBCWopsTSingle OpHP13,456new6347
2021-04-15 04:02:15K4IUCWopsTSingle OpLP9,858new6347
2021-04-15 04:01:53N0BKCWopsTSingle OpLP2,601new6347
2021-04-15 03:57:39K0ADCWopsTSingle OpLP11,770new6347
 
2021-04-15 03:33:05K0PKCWopsTSingle OpLP1,980new6347
2021-04-15 03:26:31K0TCCWopsTSingle OpHP900new6347
2021-04-14 21:38:05KB9SNMQPSingle OpLP32new6335
2021-04-14 21:13:49AA0AWCWopsTSingle OpLP2,070new6346
2021-04-14 20:07:50N0BMCWopsTSingle OpLP169new6346
2021-04-14 20:05:52W6GMTCWopsTSingle OpLP529new6346
2021-04-14 20:05:18N0BMCWopsTSingle OpLP961new6345
2021-04-14 20:04:09K0ADCWopsTSingle OpLP16,875new6346
2021-04-14 20:03:53W0ORCWopsTSingle OpLP2,401new6346
2021-04-14 20:03:41N0BKCWopsTSingle OpLP1,764new6346
 
2021-04-14 20:02:13K0TGCWopsTSingle OpLP3,900new6346
2021-04-14 20:01:43N5KBCWopsTAcademy Single OpLP1,444new6346
2021-04-14 20:01:42K0TCCWopsTSingle OpHP2,809new6346
2021-04-14 20:01:38K4IUCWopsTSingle OpLP5,976new6346
2021-04-14 19:44:41K0PKCWopsTSingle OpLP1,681new6346
2021-04-14 19:23:33KB9SCWopsTSingle OpLP420new6346
2021-04-14 14:43:13AA0AWCWopsTSingle OpLP1,681new6345
2021-04-14 14:06:06W6GMTCWopsTSingle OpLP625new6345
2021-04-14 14:04:13W0ORCWopsTSingle OpLP625new6345
2021-04-14 14:03:48K0ADCWopsTSingle OpLP13,923new6345
 
2021-04-14 14:03:24K4IUCWopsTSingle OpLP8,463new6345
2021-04-14 14:03:18N0BKCWopsTSingle OpLP2,115new6345
2021-04-14 14:02:26K0TGCWopsTSingle OpLP3,136new6345
2021-04-14 14:02:18K0TCCWopsTSingle OpHP3,249new6345
2021-04-14 13:34:09KB9SCWopsTSingle OpLP441new6345
2021-04-14 13:32:58K0PKCWopsTSingle OpLP1,225new6345
2021-04-14 00:33:48AC0WNDQPMobileLP50,643new6337
 (@AC0W)
2021-04-14 00:16:22AE0EEWPX SSBSOAB Classic UnassisLP1,288new6302
2021-04-13 05:57:50AC0WGaQPSingle OpMixedLP544new6336
2021-04-13 04:29:47AC0WNeQPOut of StateLP88new6334
 
2021-04-13 03:50:42AC0WNMQPSingle OpLP132new6335
2021-04-13 03:39:04AE0EENDQPPortableQRP3,630new6337
2021-04-13 00:16:48N0HJZNDQPMobileLP86,684new6337
 (@N0HJZ)
2021-04-13 00:10:41N0HJZNMQPSingle OpLP224new6335
2021-04-13 00:09:45N0HJZNeQPOut of StateLP72new6334
2021-04-13 00:08:42N0HJZGaQPSingle OpMixedLP1,323new6336
2021-04-12 15:49:17K0TCGaQPSingle OpCWHP11,200new6336
2021-04-12 15:46:40K0TCNMQPSingle OpHP180new6335
2021-04-12 15:43:36K0TCNeQPFixedHP40new6334
2021-04-12 15:40:01K0TCNDQPFixedHP2new6337
 
2021-04-12 14:15:16K0JPNDQPMobileLP9,758update6337
 (@K0JP)
2021-04-12 03:28:36K0VGNDQPMobileLP2,700update6337
 (@K0VG)
2021-04-12 01:28:53KA9VVQNMQPMulti-OpLP112new6335
 (W9FZ,@KA9VVQ)
2021-04-12 01:25:31KA9VVQGaQPM/SLP1,012new6336
 (W9FZ,@KA9VVQ)
2021-04-12 01:06:06W6GMTKRC SSTSingle OpLP168new6339
2021-04-11 23:56:43W0PINeQPOut of StateLP1,890update6334
2021-04-11 23:37:38W6GMTGaQPSingle OpCWLP600new6336
2021-04-11 23:29:23W0PIGaQPSingle OpMixedLP16,720new6336
2021-04-11 23:16:19K0PCGaQPSingle OpMixedHP13,464new6336
2021-04-11 21:23:52W0PINDQPOut of StateLP252new6337
 
2021-04-11 20:43:54W0PINMQPSingle OpLP2,880new6335
2021-04-11 20:23:03W6GMTNeQPOut of StateLP140new6334
2021-04-11 20:01:46K0RJWNMQPSingle OpHP96new6335
2021-04-11 20:00:16K0RJWNDQPOut of StateHP36new6337
2021-04-11 19:58:46K0RJWNeQPOut of StateHP42new6334
2021-04-11 18:13:52K0PCNMQPSingle OpHP840new6335
2021-04-11 18:09:57K0PCNeQPOut of StateHP196new6334
2021-04-11 18:02:11K0PCNDQPOut of StateHP56new6337
2021-04-11 16:16:11K4IUNMQPSingle OpHP80new6335
2021-04-11 16:10:01K4IUNeQPFixedLP4new6334
 
2021-04-11 16:04:17K4IUNDQPFixedLP4new6337
2021-04-11 15:49:42K4IU(@K4IU2)GaQPSingle OpCWLP1,320new6336
2021-04-11 15:25:02K0BBCNDQPMobileLP23,534new6337
 (@K0BBC)
2021-04-11 01:36:52W6GMTNMQPSingle OpLP140new6335
2021-04-09 03:01:55K0TGNCCC SprintSingle OpLP756new